Time,TemperatureF,DewpointF,PressureIn,WindDirection,WindDirectionDegrees,WindSpeedMPH,WindSpeedGustMPH,Humidity,HourlyPrecipIn,Conditions,Clouds,dailyrainin,SoftwareType,DateUTC
2013-07-18 00:06:00,80.4,73.0,29.98,SW,229,2.0,7.0,78,0.00,,,0.00,weatherlink.com 1.10,2013-07-18 04:06:00,
2013-07-18 00:21:00,80.1,73.0,29.98,WSW,256,7.0,7.0,78,0.00,,,0.00,weatherlink.com 1.10,2013-07-18 04:21:00,
2013-07-18 00:36:00,80.0,73.0,29.98,WSW,245,0.0,7.0,79,0.00,,,0.00,weatherlink.com 1.10,2013-07-18 04:36:00,
2013-07-18 00:51:00,79.8,73.0,29.99,SW,223,0.0,7.0,79,0.00,,,0.00,weatherlink.com 1.10,2013-07-18 04:51:00,
2013-07-18 01:06:00,79.7,73.0,29.99,WNW,285,2.0,4.0,79,0.00,,,0.00,weatherlink.com 1.10,2013-07-18 05:06:00,
2013-07-18 01:21:00,79.6,73.0,29.99,WNW,287,3.0,5.0,79,0.00,,,0.00,weatherlink.com 1.10,2013-07-18 05:21:00,
2013-07-18 01:36:00,79.4,73.0,29.99,WSW,256,2.0,4.0,80,0.00,,,0.00,weatherlink.com 1.10,2013-07-18 05:36:00,
2013-07-18 01:51:00,79.2,73.0,29.98,WNW,287,1.0,4.0,80,0.00,,,0.00,weatherlink.com 1.10,2013-07-18 05:51:00,
2013-07-18 02:06:00,79.3,73.0,29.98,WNW,284,2.0,5.0,80,0.00,,,0.00,weatherlink.com 1.10,2013-07-18 06:06:00,
2013-07-18 02:21:00,79.4,73.0,29.97,WNW,283,2.0,6.0,80,0.00,,,0.00,weatherlink.com 1.10,2013-07-18 06:21:00,
2013-07-18 02:36:00,79.4,73.0,29.97,WNW,285,2.0,4.0,80,0.00,,,0.00,weatherlink.com 1.10,2013-07-18 06:36:00,
2013-07-18 02:51:00,79.3,73.0,29.96,SE,146,1.0,4.0,80,0.00,,,0.00,weatherlink.com 1.10,2013-07-18 06:51:00,
2013-07-18 03:06:00,79.2,73.0,29.95,West,269,3.0,6.0,80,0.00,,,0.00,weatherlink.com 1.10,2013-07-18 07:06:00,
2013-07-18 03:21:00,79.0,72.0,29.95,West,270,1.0,5.0,80,0.00,,,0.00,weatherlink.com 1.10,2013-07-18 07:21:00,
2013-07-18 03:36:00,78.7,72.0,29.95,WNW,288,2.0,5.0,81,0.00,,,0.00,weatherlink.com 1.10,2013-07-18 07:36:00,
2013-07-18 03:51:00,78.6,72.0,29.94,West,276,2.0,5.0,81,0.00,,,0.00,weatherlink.com 1.10,2013-07-18 07:51:00,
2013-07-18 04:06:00,78.6,72.0,29.95,West,274,2.0,5.0,81,0.00,,,0.00,weatherlink.com 1.10,2013-07-18 08:06:00,
2013-07-18 04:21:00,78.6,72.0,29.95,West,278,1.0,6.0,81,0.00,,,0.00,weatherlink.com 1.10,2013-07-18 08:21:00,
2013-07-18 04:36:00,78.6,72.0,29.95,SW,233,1.0,5.0,81,0.00,,,0.00,weatherlink.com 1.10,2013-07-18 08:36:00,
2013-07-18 04:51:00,78.4,73.0,29.95,SW,229,1.0,3.0,82,0.00,,,0.00,weatherlink.com 1.10,2013-07-18 08:51:00,
2013-07-18 05:06:00,78.4,73.0,29.95,SSW,209,0.0,3.0,82,0.00,,,0.00,weatherlink.com 1.10,2013-07-18 09:06:00,
2013-07-18 05:21:00,78.1,72.0,29.95,WSW,242,0.0,2.0,82,0.00,,,0.00,weatherlink.com 1.10,2013-07-18 09:21:00,
2013-07-18 05:37:00,77.9,72.0,29.96,SW,218,0.0,1.0,83,0.00,,,0.00,weatherlink.com 1.10,2013-07-18 09:37:00,
2013-07-18 05:52:00,78.0,73.0,29.96,WSW,256,0.0,3.0,83,0.00,,,0.00,weatherlink.com 1.10,2013-07-18 09:52:00,
2013-07-18 06:07:00,78.3,72.0,29.97,West,264,0.0,2.0,82,0.00,,,0.00,weatherlink.com 1.10,2013-07-18 10:07:00,
2013-07-18 06:22:00,79.0,73.0,29.97,ENE,73,0.0,4.0,81,0.00,,,0.00,weatherlink.com 1.10,2013-07-18 10:22:00,
2013-07-18 06:37:00,79.4,73.0,29.97,West,278,1.0,1.0,81,0.00,,,0.00,weatherlink.com 1.10,2013-07-18 10:37:00,
2013-07-18 06:52:00,80.5,73.0,29.98,SW,233,0.0,2.0,79,0.00,,,0.00,weatherlink.com 1.10,2013-07-18 10:52:00,
2013-07-18 07:07:00,81.5,74.0,29.98,WNW,283,0.0,2.0,77,0.00,,,0.00,weatherlink.com 1.10,2013-07-18 11:07:00,
2013-07-18 07:22:00,82.7,74.0,29.98,SE,129,0.0,2.0,75,0.00,,,0.00,weatherlink.com 1.10,2013-07-18 11:22:00,
2013-07-18 07:37:00,84.1,75.0,29.98,West,281,0.0,1.0,73,0.00,,,0.00,weatherlink.com 1.10,2013-07-18 11:37:00,
2013-07-18 07:52:00,85.8,75.0,29.99,WNW,287,0.0,1.0,71,0.00,,,0.00,weatherlink.com 1.10,2013-07-18 11:52:00,
2013-07-18 08:07:00,86.1,75.0,29.99,NNW,328,0.0,3.0,70,0.00,,,0.00,weatherlink.com 1.10,2013-07-18 12:07:00,
2013-07-18 08:22:00,87.8,76.0,29.98,WNW,285,0.0,1.0,68,0.00,,,0.00,weatherlink.com 1.10,2013-07-18 12:22:00,
2013-07-18 08:37:00,87.9,75.0,29.98,ENE,58,1.0,3.0,66,0.00,,,0.00,weatherlink.com 1.10,2013-07-18 12:37:00,
2013-07-18 08:52:00,88.6,75.0,29.98,WNW,283,0.0,4.0,65,0.00,,,0.00,weatherlink.com 1.10,2013-07-18 12:52:00,
2013-07-18 09:07:00,88.7,74.0,29.99,NNW,331,2.0,4.0,63,0.00,,,0.00,weatherlink.com 1.10,2013-07-18 13:07:00,
2013-07-18 09:22:00,89.2,74.0,29.99,SE,133,1.0,5.0,62,0.00,,,0.00,weatherlink.com 1.10,2013-07-18 13:22:00,
2013-07-18 09:37:00,90.9,74.0,29.99,ENE,65,2.0,3.0,58,0.00,,,0.00,weatherlink.com 1.10,2013-07-18 13:37:00,
2013-07-18 09:52:00,90.3,72.0,29.99,NNE,13,2.0,4.0,56,0.00,,,0.00,weatherlink.com 1.10,2013-07-18 13:52:00,
2013-07-18 10:07:00,91.4,72.0,29.99,ENE,68,2.0,4.0,54,0.00,,,0.00,weatherlink.com 1.10,2013-07-18 14:07:00,
2013-07-18 10:22:00,91.6,73.0,29.99,NE,48,1.0,4.0,54,0.00,,,0.00,weatherlink.com 1.10,2013-07-18 14:22:00,
2013-07-18 10:37:00,91.8,72.0,29.99,East,84,2.0,4.0,53,0.00,,,0.00,weatherlink.com 1.10,2013-07-18 14:37:00,
2013-07-18 10:52:00,93.0,72.0,29.99,ENE,72,0.0,3.0,51,0.00,,,0.00,weatherlink.com 1.10,2013-07-18 14:52:00,
2013-07-18 11:07:00,93.5,72.0,29.99,ESE,105,0.0,2.0,49,0.00,,,0.00,weatherlink.com 1.10,2013-07-18 15:07:00,
2013-07-18 11:22:00,94.3,72.0,29.99,NE,34,1.0,2.0,48,0.00,,,0.00,weatherlink.com 1.10,2013-07-18 15:22:00,
2013-07-18 11:37:00,95.7,72.0,29.99,ESE,121,0.0,3.0,46,0.00,,,0.00,weatherlink.com 1.10,2013-07-18 15:37:00,
2013-07-18 11:52:00,95.0,71.0,29.99,SE,139,3.0,5.0,46,0.00,,,0.00,weatherlink.com 1.10,2013-07-18 15:52:00,
2013-07-18 12:07:00,93.6,73.0,29.99,SE,134,4.0,8.0,52,0.00,,,0.00,weatherlink.com 1.10,2013-07-18 16:07:00,
2013-07-18 12:22:00,91.7,72.0,30.00,NNE,29,2.0,7.0,52,0.00,,,0.00,weatherlink.com 1.10,2013-07-18 16:22:00,
2013-07-18 12:37:00,90.2,71.0,30.00,SE,129,2.0,11.0,53,0.00,,,0.00,weatherlink.com 1.10,2013-07-18 16:37:00,
2013-07-18 12:52:00,90.1,71.0,30.00,SSW,211,3.0,7.0,53,0.00,,,0.00,weatherlink.com 1.10,2013-07-18 16:52:00,
2013-07-18 13:07:00,89.7,70.0,29.99,ENE,65,3.0,6.0,53,0.00,,,0.00,weatherlink.com 1.10,2013-07-18 17:07:00,
2013-07-18 13:22:00,90.0,71.0,30.00,ESE,110,2.0,8.0,53,0.00,,,0.00,weatherlink.com 1.10,2013-07-18 17:22:00,
2013-07-18 13:37:00,89.8,70.0,29.99,South,186,1.0,7.0,52,0.00,,,0.00,weatherlink.com 1.10,2013-07-18 17:37:00,
2013-07-18 13:52:00,89.2,70.0,29.99,ESE,107,5.0,7.0,53,0.00,,,0.00,weatherlink.com 1.10,2013-07-18 17:52:00,
2013-07-18 14:07:00,89.2,70.0,29.99,ENE,63,2.0,6.0,53,0.00,,,0.00,weatherlink.com 1.10,2013-07-18 18:07:00,
2013-07-18 14:22:00,89.0,69.0,29.98,East,99,2.0,7.0,52,0.00,,,0.00,weatherlink.com 1.10,2013-07-18 18:22:00,
2013-07-18 14:37:00,88.8,69.0,29.98,SE,143,3.0,6.0,53,0.00,,,0.00,weatherlink.com 1.10,2013-07-18 18:37:00,
2013-07-18 14:52:00,88.1,69.0,29.98,WNW,299,1.0,7.0,53,0.00,,,0.00,weatherlink.com 1.10,2013-07-18 18:52:00,
2013-07-18 15:07:00,88.4,69.0,29.98,West,266,5.0,8.0,52,0.00,,,0.00,weatherlink.com 1.10,2013-07-18 19:07:00,
2013-07-18 15:22:00,88.5,69.0,29.97,South,181,1.0,6.0,52,0.00,,,0.00,weatherlink.com 1.10,2013-07-18 19:22:00,
2013-07-18 15:37:00,89.3,69.0,29.97,SE,135,2.0,7.0,51,0.00,,,0.00,weatherlink.com 1.10,2013-07-18 19:37:00,
2013-07-18 15:52:00,88.4,68.0,29.96,NE,49,1.0,5.0,51,0.00,,,0.00,weatherlink.com 1.10,2013-07-18 19:52:00,
2013-07-18 16:07:00,87.9,69.0,29.95,WSW,243,1.0,5.0,53,0.00,,,0.00,weatherlink.com 1.10,2013-07-18 20:07:00,
2013-07-18 16:22:00,88.6,70.0,29.94,SE,143,1.0,5.0,54,0.00,,,0.00,weatherlink.com 1.10,2013-07-18 20:22:00,
2013-07-18 16:37:00,87.5,70.0,29.95,NNE,31,2.0,6.0,56,0.00,,,0.00,weatherlink.com 1.10,2013-07-18 20:37:00,
2013-07-18 16:52:00,86.4,70.0,29.95,SE,129,0.0,5.0,58,0.00,,,0.00,weatherlink.com 1.10,2013-07-18 20:52:00,
2013-07-18 17:07:00,84.8,70.0,29.96,ENE,77,2.0,5.0,61,0.00,,,0.00,weatherlink.com 1.10,2013-07-18 21:07:00,
2013-07-18 17:22:00,83.5,70.0,29.95,ESE,123,0.0,3.0,64,0.00,,,0.00,weatherlink.com 1.10,2013-07-18 21:22:00,
2013-07-18 17:37:00,84.1,70.0,29.95,North,8,1.0,4.0,63,0.00,,,0.00,weatherlink.com 1.10,2013-07-18 21:37:00,
2013-07-18 17:52:00,84.5,71.0,29.94,NNW,342,1.0,3.0,64,0.00,,,0.00,weatherlink.com 1.10,2013-07-18 21:52:00,
2013-07-18 18:07:00,84.5,71.0,29.94,ESE,107,1.0,3.0,64,0.00,,,0.00,weatherlink.com 1.10,2013-07-18 22:07:00,
2013-07-18 18:22:00,83.8,71.0,29.93,SSE,149,3.0,5.0,66,0.00,,,0.00,weatherlink.com 1.10,2013-07-18 22:22:00,
2013-07-18 18:37:00,83.0,71.0,29.94,ESE,113,2.0,2.0,68,0.00,,,0.00,weatherlink.com 1.10,2013-07-18 22:37:00,
2013-07-18 18:52:00,82.7,72.0,29.95,SE,146,0.0,2.0,70,0.00,,,0.00,weatherlink.com 1.10,2013-07-18 22:52:00,
2013-07-18 19:07:00,82.0,72.0,29.95,SE,146,1.0,2.0,71,0.00,,,0.00,weatherlink.com 1.10,2013-07-18 23:07:00,
2013-07-18 19:22:00,81.9,72.0,29.95,NNE,32,0.0,2.0,72,0.00,,,0.00,weatherlink.com 1.10,2013-07-18 23:22:00,
2013-07-18 19:37:00,82.0,72.0,29.95,ESE,122,0.0,2.0,72,0.00,,,0.00,weatherlink.com 1.10,2013-07-18 23:37:00,
2013-07-18 19:52:00,81.7,72.0,29.95,ESE,121,0.0,0.0,73,0.00,,,0.00,weatherlink.com 1.10,2013-07-18 23:52:00,
2013-07-18 20:07:00,81.5,73.0,29.95,ESE,121,0.0,0.0,74,0.00,,,0.00,weatherlink.com 1.10,2013-07-19 00:07:00,
2013-07-18 20:22:00,81.2,73.0,29.94,SE,124,0.0,0.0,75,0.00,,,0.00,weatherlink.com 1.10,2013-07-19 00:22:00,
2013-07-18 20:37:00,81.0,73.0,29.94,SE,124,0.0,0.0,76,0.00,,,0.00,weatherlink.com 1.10,2013-07-19 00:37:00,
2013-07-18 20:52:00,80.6,73.0,29.94,SE,124,0.0,0.0,77,0.00,,,0.00,weatherlink.com 1.10,2013-07-19 00:52:00,
2013-07-18 21:07:00,80.1,73.0,29.95,SE,127,0.0,1.0,79,0.00,,,0.00,weatherlink.com 1.10,2013-07-19 01:07:00,
2013-07-18 21:22:00,81.3,75.0,29.95,East,80,3.0,7.0,80,0.00,,,0.00,weatherlink.com 1.10,2013-07-19 01:22:00,
2013-07-18 21:37:00,82.4,75.0,29.95,SSW,212,1.0,5.0,77,0.00,,,0.00,weatherlink.com 1.10,2013-07-19 01:37:00,
2013-07-18 21:52:00,82.7,75.0,29.95,WSW,257,1.0,3.0,77,0.00,,,0.00,weatherlink.com 1.10,2013-07-19 01:52:00,
2013-07-18 22:07:00,82.9,75.0,29.95,SSE,156,0.0,3.0,76,0.00,,,0.00,weatherlink.com 1.10,2013-07-19 02:07:00,
2013-07-18 22:22:00,82.8,75.0,29.95,West,277,0.0,2.0,77,0.00,,,0.00,weatherlink.com 1.10,2013-07-19 02:22:00,
2013-07-18 22:37:00,82.7,75.0,29.95,SE,124,0.0,2.0,77,0.00,,,0.00,weatherlink.com 1.10,2013-07-19 02:37:00,
2013-07-18 22:52:00,82.6,75.0,29.94,WSW,257,0.0,2.0,77,0.00,,,0.00,weatherlink.com 1.10,2013-07-19 02:52:00,
2013-07-18 23:07:00,82.3,75.0,29.94,West,269,0.0,3.0,78,0.00,,,0.00,weatherlink.com 1.10,2013-07-19 03:07:00,
2013-07-18 23:22:00,82.0,75.0,29.94,SW,215,1.0,3.0,79,0.00,,,0.00,weatherlink.com 1.10,2013-07-19 03:22:00,
2013-07-18 23:37:00,81.9,75.0,29.94,NNE,29,0.0,2.0,79,0.00,,,0.00,weatherlink.com 1.10,2013-07-19 03:37:00,
2013-07-18 23:52:00,81.6,75.0,29.94,WNW,284,0.0,3.0,80,0.00,,,0.00,weatherlink.com 1.10,2013-07-19 03:52:00,